RYR1UL LIEE-LIRA

Flight info

Callsign RYR1UL
Flight time 0h 50m
Altitude 36000
Route KOVAS DCT GIGGI DCT OLBEK DCT TINTO DCT VALMA
Aircraft B738/M-SDE3FGILRWY/SB1

Departure

Time 2026-04-27 16:56
Airport Cagliari Elmas Airport (LIEE)

Arrival

Time 2026-04-27 17:47
Airport Ciampino–G. B. Pastine International Airport (LIRA)
Time Latitude Longitude Altitude Speed Heading
2026-04-27 16:43 39.25338 9.05840 15 ft 0 kts 142°
2026-04-27 16:48 39.25350 9.05828 16 ft 4 kts 146°
2026-04-27 16:49 39.25399 9.05804 14 ft 4 kts 188°
2026-04-27 16:49 39.25417 9.05814 18 ft 1 kts 231°
2026-04-27 16:49 39.25419 9.05818 18 ft 0 kts 231°
2026-04-27 16:51 39.25412 9.05806 15 ft 4 kts 231°
2026-04-27 16:51 39.25379 9.05752 14 ft 10 kts 231°
2026-04-27 16:51 39.25342 9.05677 14 ft 10 kts 268°
2026-04-27 16:52 39.25377 9.05612 14 ft 9 kts 303°
2026-04-27 16:52 39.25397 9.05525 14 ft 11 kts 281°
2026-04-27 16:52 39.25418 9.05422 14 ft 12 kts 292°
2026-04-27 16:52 39.25473 9.05326 14 ft 14 kts 316°
2026-04-27 16:53 39.25554 9.05231 14 ft 17 kts 318°
2026-04-27 16:53 39.25645 9.05125 14 ft 17 kts 318°
2026-04-27 16:53 39.25732 9.05024 14 ft 16 kts 318°
2026-04-27 16:53 39.25816 9.04927 14 ft 16 kts 318°
2026-04-27 16:54 39.25897 9.04834 14 ft 15 kts 318°
2026-04-27 16:54 39.25973 9.04746 14 ft 15 kts 318°
2026-04-27 16:54 39.26047 9.04660 14 ft 14 kts 318°
2026-04-27 16:54 39.26113 9.04572 14 ft 13 kts 296°
2026-04-27 16:55 39.26123 9.04456 14 ft 13 kts 261°
2026-04-27 16:55 39.26061 9.04388 14 ft 13 kts 180°
2026-04-27 16:55 39.25994 9.04449 13 ft 12 kts 137°
2026-04-27 16:55 39.25860 9.04606 15 ft 54 kts 138°
2026-04-27 16:56 39.25414 9.05121 14 ft 116 kts 138°
2026-04-27 16:56 39.24684 9.05966 41 ft 162 kts 140°
2026-04-27 16:56 39.23838 9.06940 630 ft 163 kts 141°
2026-04-27 16:56 39.22997 9.07906 1296 ft 163 kts 138°
2026-04-27 16:57 39.22099 9.08958 1604 ft 188 kts 139°
2026-04-27 16:57 39.21067 9.10157 1826 ft 211 kts 137°
2026-04-27 16:57 39.19940 9.11430 2196 ft 220 kts 143°
2026-04-27 16:57 39.18480 9.12080 2689 ft 229 kts 177°
2026-04-27 16:58 39.16914 9.11681 3375 ft 235 kts 204°
2026-04-27 16:58 39.15636 9.10376 4080 ft 236 kts 225°
2026-04-27 16:58 39.14530 9.08802 4780 ft 238 kts 227°
2026-04-27 16:58 39.13686 9.06975 5418 ft 242 kts 256°
2026-04-27 16:59 39.13740 9.04813 5968 ft 252 kts 288°
2026-04-27 16:59 39.14752 9.02869 6195 ft 274 kts 316°
2026-04-27 16:59 39.16207 9.01231 6793 ft 279 kts 319°
2026-04-27 16:59 39.17682 8.99589 7503 ft 281 kts 318°
2026-04-27 17:00 39.19621 8.97383 8490 ft 282 kts 317°
2026-04-27 17:00 39.22076 8.94548 9841 ft 283 kts 318°
2026-04-27 17:00 39.23771 8.93243 10480 ft 291 kts 341°
2026-04-27 17:01 39.25846 8.92807 10712 ft 315 kts 354°
2026-04-27 17:01 39.28110 8.92661 10945 ft 335 kts 356°
2026-04-27 17:01 39.30470 8.92544 11460 ft 343 kts 356°
2026-04-27 17:01 39.32837 8.92417 12153 ft 345 kts 356°
2026-04-27 17:02 39.35249 8.92264 12884 ft 349 kts 355°
2026-04-27 17:02 39.37682 8.92094 13621 ft 352 kts 355°
2026-04-27 17:02 39.40143 8.91915 14305 ft 356 kts 355°
2026-04-27 17:02 39.42635 8.91908 14961 ft 362 kts
2026-04-27 17:03 39.45022 8.92976 15658 ft 367 kts 26°
2026-04-27 17:03 39.46551 8.94030 16160 ft 369 kts 27°
2026-04-27 17:03 39.48800 8.95670 16802 ft 374 kts 28°
2026-04-27 17:03 39.51072 8.97349 17462 ft 378 kts 28°
2026-04-27 17:04 39.53339 8.99010 18134 ft 381 kts 28°
2026-04-27 17:04 39.55696 9.00718 18763 ft 385 kts 28°
2026-04-27 17:04 39.58044 9.02405 19352 ft 388 kts 27°
2026-04-27 17:04 39.60383 9.04079 19924 ft 391 kts 27°
2026-04-27 17:05 39.62775 9.05790 20510 ft 394 kts 27°
2026-04-27 17:05 39.65272 9.07255 21037 ft 396 kts 13°
2026-04-27 17:05 39.67993 9.07753 21617 ft 396 kts
2026-04-27 17:05 39.70750 9.08113 22141 ft 401 kts
2026-04-27 17:06 39.73540 9.08486 22655 ft 405 kts
2026-04-27 17:06 39.76352 9.08876 23198 ft 408 kts
2026-04-27 17:06 39.79182 9.09283 23729 ft 411 kts
2026-04-27 17:06 39.82030 9.09702 24169 ft 413 kts
2026-04-27 17:07 39.84893 9.10128 24621 ft 416 kts
2026-04-27 17:07 39.87778 9.10561 25066 ft 418 kts
2026-04-27 17:07 39.90675 9.10996 25502 ft 421 kts
2026-04-27 17:07 39.93597 9.11434 25906 ft 424 kts
2026-04-27 17:08 39.96539 9.11877 26312 ft 427 kts
2026-04-27 17:08 39.99496 9.12324 26738 ft 429 kts
2026-04-27 17:08 40.02509 9.12778 27158 ft 431 kts
2026-04-27 17:08 40.05462 9.13223 27547 ft 434 kts
2026-04-27 17:09 40.08510 9.13683 27945 ft 436 kts
2026-04-27 17:09 40.11468 9.14129 28314 ft 439 kts
2026-04-27 17:09 40.14583 9.14600 28635 ft 443 kts
2026-04-27 17:09 40.17617 9.15059 28957 ft 447 kts
2026-04-27 17:10 40.20708 9.15527 29323 ft 449 kts
2026-04-27 17:10 40.23814 9.16049 29698 ft 451 kts
2026-04-27 17:10 40.26861 9.17097 30086 ft 454 kts 18°
2026-04-27 17:10 40.29742 9.18779 30518 ft 454 kts 26°
2026-04-27 17:11 40.32531 9.20692 30993 ft 451 kts 26°
2026-04-27 17:11 40.38050 9.24554 31812 ft 449 kts 26°
2026-04-27 17:11 40.40805 9.26470 32193 ft 448 kts 26°
2026-04-27 17:12 40.46305 9.30260 33019 ft 445 kts 25°
2026-04-27 17:12 40.49040 9.32134 33402 ft 444 kts 25°
2026-04-27 17:12 40.51778 9.34008 33772 ft 443 kts 25°
2026-04-27 17:13 40.54541 9.35899 34146 ft 441 kts 25°
2026-04-27 17:13 40.57225 9.37737 34449 ft 441 kts 25°
2026-04-27 17:13 40.59943 9.39601 34740 ft 440 kts 25°
2026-04-27 17:13 40.62655 9.41463 35029 ft 439 kts 25°
2026-04-27 17:14 40.65374 9.43331 35078 ft 444 kts 25°
2026-04-27 17:14 40.70859 9.47106 35083 ft 443 kts 25°
2026-04-27 17:15 40.76278 9.50846 35090 ft 437 kts 25°
2026-04-27 17:15 40.81670 9.54571 35080 ft 437 kts 25°
2026-04-27 17:16 40.87054 9.58298 35080 ft 437 kts 25°
2026-04-27 17:16 40.92451 9.62041 35079 ft 437 kts 25°
2026-04-27 17:17 40.97846 9.65790 35081 ft 438 kts 26°
2026-04-27 17:17 41.03215 9.69528 35082 ft 438 kts 26°
2026-04-27 17:18 41.11312 9.75178 35088 ft 438 kts 26°
2026-04-27 17:18 41.16705 9.78951 35093 ft 438 kts 26°
2026-04-27 17:19 41.22099 9.82736 35091 ft 438 kts 28°
2026-04-27 17:19 41.24543 9.85156 35083 ft 442 kts 46°
2026-04-27 17:19 41.26335 9.88472 35104 ft 444 kts 62°
2026-04-27 17:20 41.27359 9.92344 35113 ft 446 kts 75°
2026-04-27 17:20 41.28070 9.96357 35104 ft 447 kts 76°
2026-04-27 17:20 41.29469 10.04406 35101 ft 447 kts 76°
2026-04-27 17:21 41.30906 10.12449 35092 ft 444 kts 75°
2026-04-27 17:21 41.31623 10.16397 34972 ft 435 kts 75°
2026-04-27 17:21 41.32332 10.20283 34695 ft 428 kts 75°
2026-04-27 17:22 41.33032 10.24113 34347 ft 425 kts 75°
2026-04-27 17:22 41.33727 10.27917 33978 ft 422 kts 75°
2026-04-27 17:22 41.34416 10.31697 33571 ft 419 kts 75°
2026-04-27 17:22 41.35100 10.35455 33188 ft 416 kts 75°
2026-04-27 17:23 41.35776 10.39183 32815 ft 413 kts 75°
2026-04-27 17:23 41.36446 10.42883 32450 ft 410 kts 76°
2026-04-27 17:23 41.37108 10.46551 32052 ft 408 kts 76°
2026-04-27 17:23 41.37769 10.50216 31663 ft 406 kts 76°
2026-04-27 17:24 41.38424 10.53862 31301 ft 403 kts 76°
2026-04-27 17:24 41.39074 10.57481 30959 ft 399 kts 76°
2026-04-27 17:24 41.39711 10.61041 30515 ft 393 kts 75°
2026-04-27 17:24 41.40343 10.64576 29906 ft 391 kts 76°
2026-04-27 17:25 41.40969 10.68081 29258 ft 388 kts 76°
2026-04-27 17:25 41.41589 10.71562 28630 ft 384 kts 76°
2026-04-27 17:25 41.42202 10.75012 28022 ft 381 kts 76°
2026-04-27 17:25 41.42809 10.78430 27432 ft 378 kts 76°
2026-04-27 17:26 41.43410 10.81826 26850 ft 375 kts 76°
2026-04-27 17:26 41.44005 10.85191 26277 ft 372 kts 76°
2026-04-27 17:26 41.44595 10.88535 25728 ft 369 kts 76°
2026-04-27 17:26 41.45179 10.91849 25188 ft 366 kts 76°
2026-04-27 17:27 41.45751 10.95100 24663 ft 364 kts 76°
2026-04-27 17:27 41.46325 10.98367 24152 ft 361 kts 76°
2026-04-27 17:27 41.46895 11.01616 23629 ft 359 kts 76°
2026-04-27 17:27 41.47460 11.04848 23036 ft 356 kts 76°
2026-04-27 17:28 41.48076 11.08025 22487 ft 352 kts 71°
2026-04-27 17:28 41.48885 11.11084 21961 ft 348 kts 68°
2026-04-27 17:28 41.50632 11.17046 20913 ft 342 kts 68°
2026-04-27 17:29 41.51490 11.19989 20404 ft 339 kts 68°
2026-04-27 17:29 41.52329 11.22912 19900 ft 336 kts 68°
2026-04-27 17:29 41.53154 11.25820 19421 ft 333 kts 69°
2026-04-27 17:29 41.53965 11.28702 18956 ft 330 kts 69°
2026-04-27 17:30 41.54761 11.31538 18592 ft 324 kts 69°
2026-04-27 17:30 41.56315 11.37091 17925 ft 317 kts 69°
2026-04-27 17:30 41.57084 11.39846 17600 ft 316 kts 69°
2026-04-27 17:31 41.57849 11.42586 17295 ft 314 kts 69°
2026-04-27 17:31 41.58613 11.45298 17039 ft 311 kts 68°
2026-04-27 17:31 41.59375 11.47993 16738 ft 309 kts 68°
2026-04-27 17:31 41.60132 11.50670 16442 ft 307 kts 68°
2026-04-27 17:32 41.60884 11.53333 16140 ft 306 kts 69°
2026-04-27 17:32 41.62378 11.58635 15557 ft 304 kts 68°
2026-04-27 17:32 41.63120 11.61273 15267 ft 303 kts 68°
2026-04-27 17:33 41.63858 11.63899 14968 ft 302 kts 68°
2026-04-27 17:33 41.64584 11.66485 14680 ft 301 kts 69°
2026-04-27 17:33 41.65317 11.69102 14385 ft 300 kts 68°
2026-04-27 17:33 41.66047 11.71711 14088 ft 300 kts 68°
2026-04-27 17:34 41.66777 11.74320 13779 ft 299 kts 69°
2026-04-27 17:34 41.67503 11.76919 13460 ft 298 kts 69°
2026-04-27 17:34 41.68228 11.79513 13149 ft 297 kts 69°
2026-04-27 17:34 41.68946 11.82090 12859 ft 295 kts 69°
2026-04-27 17:35 41.69661 11.84656 12571 ft 294 kts 69°
2026-04-27 17:35 41.70372 11.87213 12289 ft 292 kts 69°
2026-04-27 17:35 41.71074 11.89750 12011 ft 290 kts 69°
2026-04-27 17:35 41.71769 11.92276 11746 ft 288 kts 69°
2026-04-27 17:36 41.72460 11.94788 11478 ft 287 kts 69°
2026-04-27 17:36 41.73147 11.97289 11198 ft 286 kts 70°
2026-04-27 17:36 41.73831 11.99781 10927 ft 284 kts 70°
2026-04-27 17:36 41.74511 12.02260 10654 ft 283 kts 70°
2026-04-27 17:37 41.75187 12.04728 10373 ft 282 kts 70°
2026-04-27 17:37 41.75855 12.07166 10263 ft 275 kts 70°
2026-04-27 17:37 41.76508 12.09555 10014 ft 273 kts 70°
2026-04-27 17:37 41.77159 12.11935 9736 ft 271 kts 70°
2026-04-27 17:38 41.77806 12.14305 9460 ft 270 kts 70°
2026-04-27 17:38 41.78450 12.16664 9187 ft 269 kts 71°
2026-04-27 17:38 41.79088 12.19006 8816 ft 267 kts 71°
2026-04-27 17:38 41.79714 12.21305 8701 ft 259 kts 70°
2026-04-27 17:39 41.80610 12.23348 8520 ft 255 kts 44°
2026-04-27 17:39 41.82084 12.24582 8366 ft 252 kts 23°
2026-04-27 17:39 41.83752 12.25362 8122 ft 251 kts 19°
2026-04-27 17:39 41.85414 12.26081 7876 ft 250 kts 19°
2026-04-27 17:40 41.87068 12.26795 7616 ft 250 kts 19°
2026-04-27 17:40 41.88720 12.27516 7370 ft 249 kts 19°
2026-04-27 17:40 41.90366 12.28242 7120 ft 249 kts 20°
2026-04-27 17:40 41.91859 12.29364 6584 ft 250 kts 51°
2026-04-27 17:41 41.92563 12.31454 6041 ft 248 kts 84°
2026-04-27 17:41 41.92754 12.33744 5630 ft 247 kts 84°
2026-04-27 17:41 41.92979 12.35998 5124 ft 247 kts 83°
2026-04-27 17:41 41.93244 12.38308 4382 ft 253 kts 81°
2026-04-27 17:42 41.93527 12.40610 3896 ft 249 kts 81°
2026-04-27 17:42 41.93810 12.42839 3667 ft 234 kts 80°
2026-04-27 17:42 41.94075 12.44903 3510 ft 213 kts 80°
2026-04-27 17:42 41.94312 12.46754 3393 ft 190 kts 80°
2026-04-27 17:43 41.94421 12.48426 3294 ft 175 kts 102°
2026-04-27 17:43 41.93755 12.49698 3201 ft 171 kts 149°
2026-04-27 17:43 41.92721 12.50538 2968 ft 176 kts 150°
2026-04-27 17:43 41.91659 12.51353 2740 ft 175 kts 152°
2026-04-27 17:44 41.90591 12.52119 2491 ft 173 kts 154°
2026-04-27 17:44 41.89537 12.52856 2279 ft 171 kts 155°
2026-04-27 17:44 41.88487 12.53583 2053 ft 171 kts 155°
2026-04-27 17:44 41.87420 12.54319 1829 ft 171 kts 155°
2026-04-27 17:45 41.86391 12.55029 1654 ft 161 kts 156°
2026-04-27 17:45 41.85413 12.55704 1410 ft 155 kts 157°
2026-04-27 17:45 41.84458 12.56366 1223 ft 155 kts 158°
2026-04-27 17:45 41.83485 12.57033 1060 ft 157 kts 156°
2026-04-27 17:46 41.82513 12.57701 819 ft 155 kts 155°
2026-04-27 17:46 41.81890 12.58138 660 ft 151 kts 156°
2026-04-27 17:46 41.80670 12.58980 434 ft 147 kts 155°
2026-04-27 17:46 41.79866 12.59531 415 ft 88 kts 152°
2026-04-27 17:47 41.79473 12.59801 412 ft 52 kts 153°
2026-04-27 17:47 41.79375 12.59869 411 ft 40 kts 153°
2026-04-27 17:47 41.79105 12.60055 414 ft 18 kts 157°
2026-04-27 17:47 41.79040 12.59998 407 ft 15 kts 244°
2026-04-27 17:48 41.79046 12.59896 405 ft 11 kts 323°
2026-04-27 17:48 41.79115 12.59848 405 ft 13 kts 333°
2026-04-27 17:48 41.79210 12.59782 406 ft 17 kts 333°
2026-04-27 17:48 41.79319 12.59706 405 ft 18 kts 332°
2026-04-27 17:49 41.79426 12.59633 406 ft 17 kts 333°
2026-04-27 17:49 41.79528 12.59563 405 ft 16 kts 333°
2026-04-27 17:49 41.79628 12.59494 403 ft 16 kts 332°
2026-04-27 17:49 41.79721 12.59429 406 ft 15 kts 332°
2026-04-27 17:50 41.79811 12.59367 405 ft 14 kts 333°
2026-04-27 17:50 41.79978 12.59252 406 ft 13 kts 333°
2026-04-27 17:50 41.80057 12.59198 406 ft 13 kts 333°
2026-04-27 17:51 41.80134 12.59145 404 ft 12 kts 333°
2026-04-27 17:51 41.80176 12.59079 405 ft 9 kts 251°
2026-04-27 17:51 41.80141 12.59012 405 ft 9 kts 232°
2026-04-27 17:51 41.80104 12.58950 405 ft 8 kts 232°
2026-04-27 17:52 41.80068 12.58935 405 ft 6 kts 150°
2026-04-27 17:52 41.80042 12.58970 405 ft 2 kts 123°
2026-04-27 17:52 41.80040 12.58976 405 ft 0 kts 123°